FW4154 Weather Reports


Display with metric or nautical units.
time (UTC)temp
F
wind
direction
speed
MPH
gust
MPH
rain 1hr
in
rain 24hr
in
rain mn
in
humidity
%
barometer
mb
20260506073405 54 44 2.0 4.0 0.00 0.00 0.00 93 1000.2
20260506072409 54 228 0.0 2.0 0.00 0.00 0.00 93 1000.2
20260506071412 54 229 0.0 2.0 0.00 0.00 0.00 93 1000.2
20260506070856 54 228 0.0 2.0 0.00 0.00 0.00 93 1000.2
20260506062414 55 228 0.0 0.0 0.00 0.00 0.00 92 1000.2
20260506061858 55 228 0.0 2.0 0.00 0.00 0.00 92 1000.2
20260506060915 55 228 0.0 2.0 0.00 0.00 0.00 92 1000.2
20260506060407 56 228 0.0 2.0 0.00 0.00 0.00 92 1000.2
20260506051357 56 228 0.0 2.0 0.00 0.00 0.00 90 1000.2
20260506050419 57 228 0.0 1.0 0.00 0.00 0.00 90 1000.2
20260506044859 57 228 0.0 2.0 0.00 0.00 0.00 89 1000.2
20260506043859 58 228 0.0 2.0 0.00 0.00 0.00 89 1000.2
20260506042913 58 228 0.0 2.0 0.00 0.00 0.00 88 1000.2
20260506042408 58 228 0.0 1.0 0.00 0.00 0.00 88 1000.2
20260506041859 58 228 0.0 0.0 0.00 0.00 0.00 87 1000.2
20260506040903 59 228 0.0 2.0 0.00 0.00 0.00 87 1000.2
20260506040402 59 228 0.0 2.0 0.00 0.00 0.00 87 1000.2
20260506035421 60 229 1.0 2.0 0.00 0.00 0.00 85 1000.2
20260506034913 60 228 0.0 2.0 0.00 0.00 0.00 84 1000.2
20260506034410 60 228 0.0 2.0 0.00 0.00 0.00 84 1000.2
20260506033900 61 228 1.0 2.0 0.00 0.00 0.00 84 1000.2
20260506032908 61 228 1.0 3.0 0.00 0.00 0.00 83 1000.2
20260506031914 62 226 2.0 4.0 0.00 0.00 0.00 82 1000.2
20260506031402 63 174 2.0 6.0 0.00 0.00 0.00 80 1000.2
20260506030405 63 123 1.0 7.0 0.00 0.00 0.00 77 1000.2
20260506025855 63 138 3.0 7.0 0.00 0.00 0.00 78 1000.2
20260506024913 63 133 1.0 9.0 0.00 0.00 0.00 79 1000.2
20260506024406 63 147 5.0 9.0 0.00 0.00 0.00 78 1000.2
20260506023400 63 122 5.0 9.0 0.00 0.00 0.00 77 1000.2
20260506021911 63 141 5.0 9.0 0.00 0.00 0.00 78 1000.2
20260506021403 63 155 6.0 9.0 0.00 0.00 0.00 80 1000.2
20260506020857 63 125 5.0 9.0 0.00 0.00 0.00 81 1000.2
20260506020356 63 153 6.0 8.0 0.00 0.00 0.00 80 1000.2
20260506015413 63 175 6.0 8.0 0.00 0.00 0.00 82 1000.2
20260506014855 63 163 6.0 8.0 0.00 0.00 0.00 81 1000.2
20260506013903 63 165 6.0 8.0 0.00 0.00 0.00 81 1000.2
20260506012914 63 173 6.0 7.0 0.00 0.00 0.00 82 1000.2
20260506012359 63 169 5.0 9.0 0.00 0.00 0.00 81 1000.2
20260506011403 63 137 4.0 10.0 0.00 0.00 0.00 78 1000.2
20260506010629 57 132 5.0 9.0 0.00 0.00 0.00 87 1000.2
20260505161901 57 180 8.0 10.0 0.00 0.00 0.00 88 1000.2
20260505160906 57 185 7.0 12.0 0.00 0.00 0.00 88 1000.2
20260505152401 57 155 9.0 12.0 0.00 0.00 0.00 88 1000.2
20260505151402 56 146 8.0 15.0 0.00 0.00 0.00 88 1000.2
20260505150900 56 159 11.0 15.0 0.00 0.00 0.00 89 1000.2
20260505140347 56 142 9.0 13.0 0.00 0.00 0.00 89 1000.2
20260505124901 56 163 11.0 13.0 0.00 0.00 0.00 90 1000.2
20260505123856 56 186 11.0 15.0 0.00 0.00 0.00 89 1000.2
20260505123348 56 174 10.0 14.0 0.00 0.00 0.00 90 1000.2
20260505122400 56 132 8.0 15.0 0.00 0.00 0.00 89 1000.2
20260505121402 56 153 10.0 14.0 0.00 0.00 0.00 89 1000.2
20260505120859 56 123 8.0 16.0 0.00 0.00 0.00 89 1000.2
20260505120353 56 151 12.0 15.0 0.00 0.00 0.00 90 1000.2
20260505115851 56 161 12.0 14.0 0.00 0.00 0.00 90 1000.2
20260505114906 56 142 10.0 15.0 0.00 0.00 0.00 91 1000.2
20260505114349 56 151 11.0 17.0 0.00 0.00 0.00 90 1000.2
20260505113358 56 136 11.0 16.0 0.00 0.00 0.00 91 1000.2
20260505112855 56 145 11.0 16.0 0.00 0.00 0.00 91 1000.2
20260505111904 56 167 11.0 15.0 0.00 0.00 0.00 91 1000.2
20260505111351 56 146 10.0 15.0 0.00 0.00 0.00 91 1000.2
20260505110851 56 157 12.0 15.0 0.00 0.00 0.00 91 1000.2
20260505101403 56 127 9.0 14.0 0.00 0.00 0.00 90 1000.2
20260505100900 56 144 8.0 13.0 0.00 0.00 0.00 91 1000.2
20260505100355 56 155 9.0 13.0 0.00 0.00 0.00 90 1000.2
20260505095355 56 138 8.0 12.0 0.00 0.00 0.00 90 1000.2
20260505094401 56 148 8.0 11.0 0.00 0.00 0.00 89 1000.2
20260505093405 56 143 8.0 10.0 0.00 0.00 0.00 90 1000.2
20260505092353 56 133 7.0 10.0 0.00 0.00 0.00 89 1000.2
20260505091402 57 153 8.0 13.0 0.00 0.00 0.00 89 1000.2
20260505090856 57 159 7.0 11.0 0.00 0.00 0.00 89 1000.2
20260505085900 57 159 7.0 10.0 0.00 0.00 0.00 89 1000.2
20260505084905 57 166 7.0 14.0 0.00 0.00 0.00 89 1000.2
20260505083904 57 151 7.0 11.0 0.00 0.00 0.00 89 1000.2
20260505082916 57 144 7.0 11.0 0.00 0.00 0.00 88 1000.2
20260505081852 58 188 7.0 12.0 0.00 0.00 0.00 88 1000.2
20260505080859 58 148 9.0 12.0 0.00 0.00 0.00 88 1000.2
20260505075905 58 147 8.0 12.0 0.00 0.00 0.00 87 1000.2
20260505075406 58 136 6.0 11.0 0.00 0.00 0.00 87 1000.2
20260505074845 58 146 9.0 11.0 0.00 0.00 0.00 87 1000.2